Time,TemperatureF,DewpointF,PressureIn,WindDirection,WindDirectionDegrees,WindSpeedMPH,WindSpeedGustMPH,Humidity,HourlyPrecipIn,Conditions,Clouds,dailyrainin,SolarRadiationWatts/m^2,SoftwareType,DateUTC
2013-01-19 00:04:00,32.0,22.0,-100.00,North,-999,-999.0,-999.0,67,0.00,,,0.41,0.000000,,2013-01-19 05:04:00,
2013-01-19 00:10:00,32.0,23.0,-100.00,North,-999,-999.0,-999.0,69,0.00,,,0.40,0.000000,,2013-01-19 05:10:00,
2013-01-19 00:33:00,32.0,23.0,-100.00,North,-999,-999.0,-999.0,69,0.00,,,0.40,0.000000,,2013-01-19 05:33:00,
2013-01-19 00:43:00,32.0,23.0,-100.00,North,-999,-999.0,-999.0,69,0.00,,,0.40,0.000000,,2013-01-19 05:43:00,
2013-01-19 00:53:00,32.0,23.0,-100.00,North,-999,-999.0,-999.0,69,0.00,,,0.40,0.000000,,2013-01-19 05:53:00,
2013-01-19 01:03:00,32.0,23.0,-100.00,North,-999,-999.0,-999.0,69,0.00,,,0.40,0.000000,,2013-01-19 06:03:00,
2013-01-19 01:10:00,33.0,27.0,-100.00,North,-999,-999.0,-999.0,77,0.00,,,0.40,0.000000,,2013-01-19 06:10:00,
2013-01-19 01:43:00,33.0,27.0,-100.00,North,-999,-999.0,-999.0,77,0.00,,,0.40,0.000000,,2013-01-19 06:43:00,
2013-01-19 01:53:00,33.0,27.0,-100.00,North,-999,-999.0,-999.0,77,0.00,,,0.40,0.000000,,2013-01-19 06:53:00,
2013-01-19 02:02:00,33.0,27.0,-100.00,North,-999,-999.0,-999.0,77,0.00,,,0.40,0.000000,,2013-01-19 07:02:00,
2013-01-19 02:10:00,32.0,24.0,-100.00,North,-999,-999.0,-999.0,73,0.00,,,0.40,0.000000,,2013-01-19 07:10:00,
2013-01-19 02:33:00,32.0,24.0,-100.00,North,-999,-999.0,-999.0,73,0.00,,,0.40,0.000000,,2013-01-19 07:33:00,
2013-01-19 02:43:00,32.0,24.0,-100.00,North,-999,-999.0,-999.0,73,0.00,,,0.40,0.000000,,2013-01-19 07:43:00,
2013-01-19 02:53:00,32.0,24.0,-100.00,North,-999,-999.0,-999.0,73,0.00,,,0.40,0.000000,,2013-01-19 07:53:00,
2013-01-19 03:02:00,32.0,24.0,-100.00,North,-999,-999.0,-999.0,73,0.00,,,0.40,0.000000,,2013-01-19 08:02:00,
2013-01-19 03:10:00,33.0,24.0,-100.00,North,-999,-999.0,-999.0,69,0.00,,,0.40,0.000000,,2013-01-19 08:10:00,
2013-01-19 03:33:00,33.0,24.0,-100.00,North,-999,-999.0,-999.0,69,0.00,,,0.40,0.000000,,2013-01-19 08:33:00,
2013-01-19 03:43:00,33.0,24.0,-100.00,North,-999,-999.0,-999.0,69,0.00,,,0.40,0.000000,,2013-01-19 08:43:00,
2013-01-19 03:53:00,33.0,24.0,-100.00,North,-999,-999.0,-999.0,69,0.00,,,0.40,0.000000,,2013-01-19 08:53:00,
2013-01-19 04:02:00,33.0,24.0,-100.00,North,-999,-999.0,-999.0,69,0.00,,,0.40,0.000000,,2013-01-19 09:02:00,
2013-01-19 04:10:00,32.0,24.0,-100.00,North,-999,-999.0,-999.0,72,0.00,,,0.40,0.000000,,2013-01-19 09:10:00,
2013-01-19 04:33:00,32.0,24.0,-100.00,North,-999,-999.0,-999.0,72,0.00,,,0.40,0.000000,,2013-01-19 09:33:00,
2013-01-19 04:43:00,32.0,24.0,-100.00,North,-999,-999.0,-999.0,72,0.00,,,0.40,0.000000,,2013-01-19 09:43:00,
2013-01-19 04:53:00,32.0,24.0,-100.00,North,-999,-999.0,-999.0,72,0.00,,,0.40,0.000000,,2013-01-19 09:53:00,
2013-01-19 05:02:00,32.0,24.0,-100.00,North,-999,-999.0,-999.0,72,0.00,,,0.40,0.000000,,2013-01-19 10:02:00,
2013-01-19 05:10:00,32.0,25.0,-100.00,North,-999,-999.0,-999.0,75,0.00,,,0.40,0.000000,,2013-01-19 10:10:00,
2013-01-19 05:33:00,32.0,25.0,-100.00,North,-999,-999.0,-999.0,75,0.00,,,0.40,0.000000,,2013-01-19 10:33:00,
2013-01-19 05:43:00,32.0,25.0,-100.00,North,-999,-999.0,-999.0,75,0.00,,,0.40,0.000000,,2013-01-19 10:43:00,
2013-01-19 05:53:00,32.0,25.0,-100.00,North,-999,-999.0,-999.0,75,0.00,,,0.40,0.000000,,2013-01-19 10:53:00,
2013-01-19 06:03:00,32.0,25.0,-100.00,North,-999,-999.0,-999.0,75,0.00,,,0.40,0.000000,,2013-01-19 11:03:00,
2013-01-19 06:10:00,32.0,25.0,-100.00,North,-999,-999.0,-999.0,76,0.00,,,0.40,0.000000,,2013-01-19 11:10:00,
2013-01-19 07:10:00,31.0,25.0,-100.00,North,-999,-999.0,-999.0,78,0.00,,,0.40,0.000000,,2013-01-19 12:10:00,
2013-01-19 07:48:00,31.0,25.0,-100.00,North,-999,-999.0,-999.0,78,0.00,,,0.40,0.000000,,2013-01-19 12:48:00,
2013-01-19 07:53:00,31.0,25.0,-100.00,North,-999,-999.0,-999.0,78,0.00,,,0.40,0.000000,,2013-01-19 12:53:00,
2013-01-19 08:03:00,31.0,25.0,-100.00,North,-999,-999.0,-999.0,78,0.00,,,0.40,0.000000,,2013-01-19 13:03:00,
2013-01-19 08:10:00,31.0,24.0,-100.00,North,-999,-999.0,-999.0,76,0.00,,,0.40,0.000000,,2013-01-19 13:10:00,
2013-01-19 08:34:00,31.0,24.0,-100.00,North,-999,-999.0,-999.0,76,0.00,,,0.40,0.000000,,2013-01-19 13:34:00,
2013-01-19 08:43:00,31.0,24.0,-100.00,North,-999,-999.0,-999.0,76,0.00,,,0.40,0.000000,,2013-01-19 13:43:00,
2013-01-19 08:54:00,31.0,24.0,-100.00,North,-999,-999.0,-999.0,76,0.00,,,0.40,0.000000,,2013-01-19 13:54:00,
2013-01-19 09:03:00,31.0,24.0,-100.00,North,-999,-999.0,-999.0,76,0.00,,,0.40,0.000000,,2013-01-19 14:03:00,
2013-01-19 09:10:00,36.0,25.0,-100.00,North,-999,-999.0,-999.0,63,0.00,,,0.40,0.000000,,2013-01-19 14:10:00,
2013-01-19 09:34:00,36.0,25.0,-100.00,North,-999,-999.0,-999.0,63,0.00,,,0.40,0.000000,,2013-01-19 14:34:00,
2013-01-19 09:43:00,36.0,25.0,-100.00,North,-999,-999.0,-999.0,63,0.00,,,0.40,0.000000,,2013-01-19 14:43:00,
2013-01-19 09:54:00,36.0,25.0,-100.00,North,-999,-999.0,-999.0,63,0.00,,,0.40,0.000000,,2013-01-19 14:54:00,
2013-01-19 10:03:00,36.0,25.0,-100.00,North,-999,-999.0,-999.0,63,0.00,,,0.40,0.000000,,2013-01-19 15:03:00,
2013-01-19 10:10:00,43.0,28.0,-100.00,North,-999,-999.0,-999.0,55,0.00,,,0.40,0.000000,,2013-01-19 15:10:00,
2013-01-19 10:43:00,43.0,28.0,-100.00,North,-999,-999.0,-999.0,55,0.00,,,0.40,0.000000,,2013-01-19 15:43:00,
2013-01-19 10:53:00,43.0,28.0,-100.00,North,-999,-999.0,-999.0,55,0.00,,,0.40,0.000000,,2013-01-19 15:53:00,
2013-01-19 11:03:00,43.0,28.0,-100.00,North,-999,-999.0,-999.0,55,0.00,,,0.40,0.000000,,2013-01-19 16:03:00,
2013-01-19 11:10:00,46.0,30.0,-100.00,North,-999,-999.0,-999.0,54,0.02,,,0.38,0.000000,,2013-01-19 16:10:00,
2013-01-19 11:33:00,46.0,30.0,-100.00,North,-999,-999.0,-999.0,54,0.02,,,0.38,0.000000,,2013-01-19 16:33:00,
2013-01-19 11:43:00,46.0,30.0,-100.00,North,-999,-999.0,-999.0,54,0.02,,,0.38,0.000000,,2013-01-19 16:43:00,
2013-01-19 11:54:00,46.0,30.0,-100.00,North,-999,-999.0,-999.0,54,0.02,,,0.38,0.000000,,2013-01-19 16:54:00,
2013-01-19 12:03:00,46.0,30.0,-100.00,North,-999,-999.0,-999.0,54,0.02,,,0.38,0.000000,,2013-01-19 17:03:00,
2013-01-19 12:10:00,50.0,34.0,-100.00,North,-999,-999.0,-999.0,54,0.03,,,0.36,0.000000,,2013-01-19 17:10:00,
2013-01-19 12:38:00,50.0,34.0,-100.00,North,-999,-999.0,-999.0,54,0.03,,,0.36,0.000000,,2013-01-19 17:38:00,
2013-01-19 12:50:00,50.0,34.0,-100.00,North,-999,-999.0,-999.0,54,0.03,,,0.36,0.000000,,2013-01-19 17:50:00,
2013-01-19 12:55:00,50.0,34.0,-100.00,North,-999,-999.0,-999.0,54,0.03,,,0.36,0.000000,,2013-01-19 17:55:00,
2013-01-19 13:10:00,50.0,34.0,-100.00,North,-999,-999.0,-999.0,54,0.02,,,0.33,0.000000,,2013-01-19 18:10:00,
2013-01-19 13:38:00,50.0,34.0,-100.00,North,-999,-999.0,-999.0,54,0.02,,,0.33,0.000000,,2013-01-19 18:38:00,
2013-01-19 13:48:00,50.0,34.0,-100.00,North,-999,-999.0,-999.0,54,0.02,,,0.33,0.000000,,2013-01-19 18:48:00,
2013-01-19 14:03:00,50.0,34.0,-100.00,North,-999,-999.0,-999.0,54,0.02,,,0.33,0.000000,,2013-01-19 19:03:00,
2013-01-19 14:10:00,51.0,31.0,-100.00,North,-999,-999.0,-999.0,47,0.02,,,0.28,0.000000,,2013-01-19 19:10:00,
2013-01-19 14:50:00,51.0,31.0,-100.00,North,-999,-999.0,-999.0,47,0.02,,,0.28,0.000000,,2013-01-19 19:50:00,
2013-01-19 14:59:00,51.0,31.0,-100.00,North,-999,-999.0,-999.0,47,0.02,,,0.28,0.000000,,2013-01-19 19:59:00,
2013-01-19 15:10:00,50.0,30.0,-100.00,North,-999,-999.0,-999.0,46,0.00,,,0.22,0.000000,,2013-01-19 20:10:00,
2013-01-19 15:40:00,50.0,30.0,-100.00,North,-999,-999.0,-999.0,46,0.00,,,0.22,0.000000,,2013-01-19 20:40:00,
2013-01-19 15:59:00,50.0,30.0,-100.00,North,-999,-999.0,-999.0,46,0.00,,,0.22,0.000000,,2013-01-19 20:59:00,
2013-01-19 16:08:00,50.0,30.0,-100.00,North,-999,-999.0,-999.0,46,0.00,,,0.22,0.000000,,2013-01-19 21:08:00,
2013-01-19 16:10:00,52.0,32.0,-100.00,North,-999,-999.0,-999.0,46,0.00,,,0.15,0.000000,,2013-01-19 21:10:00,
2013-01-19 16:54:00,52.0,32.0,-100.00,North,-999,-999.0,-999.0,46,0.00,,,0.15,0.000000,,2013-01-19 21:54:00,
2013-01-19 17:02:00,52.0,32.0,-100.00,North,-999,-999.0,-999.0,46,0.00,,,0.15,0.000000,,2013-01-19 22:02:00,
2013-01-19 17:10:00,48.0,30.0,-100.00,North,-999,-999.0,-999.0,50,0.00,,,0.11,0.000000,,2013-01-19 22:10:00,
2013-01-19 17:49:00,48.0,30.0,-100.00,North,-999,-999.0,-999.0,50,0.00,,,0.11,0.000000,,2013-01-19 22:49:00,
2013-01-19 17:59:00,48.0,30.0,-100.00,North,-999,-999.0,-999.0,50,0.00,,,0.11,0.000000,,2013-01-19 22:59:00,
2013-01-19 18:10:00,42.0,28.0,-100.00,North,-999,-999.0,-999.0,57,0.00,,,0.10,0.000000,,2013-01-19 23:10:00,
2013-01-19 18:35:00,42.0,28.0,-100.00,North,-999,-999.0,-999.0,57,0.00,,,0.10,0.000000,,2013-01-19 23:35:00,
2013-01-19 18:52:00,42.0,28.0,-100.00,North,-999,-999.0,-999.0,57,0.00,,,0.10,0.000000,,2013-01-19 23:52:00,
2013-01-19 19:08:00,42.0,28.0,-100.00,North,-999,-999.0,-999.0,57,0.00,,,0.10,0.000000,,2013-01-20 00:08:00,
2013-01-19 19:10:00,41.0,28.0,-100.00,North,-999,-999.0,-999.0,60,0.00,,,0.10,0.000000,,2013-01-20 00:10:00,
2013-01-19 19:48:00,41.0,28.0,-100.00,North,-999,-999.0,-999.0,60,0.00,,,0.10,0.000000,,2013-01-20 00:48:00,
2013-01-19 19:58:00,41.0,28.0,-100.00,North,-999,-999.0,-999.0,60,0.00,,,0.10,0.000000,,2013-01-20 00:58:00,
2013-01-19 20:04:00,41.0,28.0,-100.00,North,-999,-999.0,-999.0,60,0.00,,,0.10,0.000000,,2013-01-20 01:04:00,
2013-01-19 20:10:00,41.0,29.0,-100.00,North,-999,-999.0,-999.0,61,0.00,,,0.09,0.000000,,2013-01-20 01:10:00,
2013-01-19 20:39:00,41.0,29.0,-100.00,North,-999,-999.0,-999.0,61,0.00,,,0.09,0.000000,,2013-01-20 01:39:00,
2013-01-19 20:52:00,41.0,29.0,-100.00,North,-999,-999.0,-999.0,61,0.00,,,0.09,0.000000,,2013-01-20 01:52:00,
2013-01-19 21:05:00,41.0,29.0,-100.00,North,-999,-999.0,-999.0,61,0.00,,,0.09,0.000000,,2013-01-20 02:05:00,
2013-01-19 21:10:00,41.0,27.0,-100.00,North,-999,-999.0,-999.0,57,0.00,,,0.09,0.000000,,2013-01-20 02:10:00,
2013-01-19 21:38:00,41.0,27.0,-100.00,North,-999,-999.0,-999.0,57,0.00,,,0.09,0.000000,,2013-01-20 02:38:00,
2013-01-19 21:45:00,41.0,27.0,-100.00,North,-999,-999.0,-999.0,57,0.00,,,0.09,0.000000,,2013-01-20 02:45:00,
2013-01-19 21:59:00,41.0,27.0,-100.00,North,-999,-999.0,-999.0,57,0.00,,,0.09,0.000000,,2013-01-20 02:59:00,
2013-01-19 22:09:00,41.0,27.0,-100.00,North,-999,-999.0,-999.0,57,0.00,,,0.09,0.000000,,2013-01-20 03:09:00,
2013-01-19 22:10:00,40.0,26.0,-100.00,North,-999,-999.0,-999.0,57,0.00,,,0.09,0.000000,,2013-01-20 03:10:00,
2013-01-19 22:39:00,40.0,26.0,-100.00,North,-999,-999.0,-999.0,57,0.00,,,0.09,0.000000,,2013-01-20 03:39:00,
2013-01-19 22:47:00,40.0,26.0,-100.00,North,-999,-999.0,-999.0,57,0.00,,,0.09,0.000000,,2013-01-20 03:47:00,
2013-01-19 22:58:00,40.0,26.0,-100.00,North,-999,-999.0,-999.0,57,0.00,,,0.09,0.000000,,2013-01-20 03:58:00,
2013-01-19 23:05:00,40.0,26.0,-100.00,North,-999,-999.0,-999.0,57,0.00,,,0.09,0.000000,,2013-01-20 04:05:00,
2013-01-19 23:10:00,38.0,25.0,-100.00,North,-999,-999.0,-999.0,60,0.00,,,0.09,0.000000,,2013-01-20 04:10:00,
2013-01-19 23:38:00,38.0,25.0,-100.00,North,-999,-999.0,-999.0,60,0.00,,,0.09,0.000000,,2013-01-20 04:38:00,
2013-01-19 23:45:00,38.0,25.0,-100.00,North,-999,-999.0,-999.0,60,0.00,,,0.09,0.000000,,2013-01-20 04:45:00,
2013-01-19 23:59:00,38.0,25.0,-100.00,North,-999,-999.0,-999.0,60,0.00,,,0.09,0.000000,,2013-01-20 04:59:00,